TimeCDT,TemperatureF,Dew PointF,Humidity,Sea Level PressureIn,VisibilityMPH,Wind Direction,Wind SpeedMPH,Gust SpeedMPH,PrecipitationIn,Events,Conditions,WindDirDegrees,DateUTC
12:25 AM,48.2,46.4,93,30.00,10.0,South,2.3,-,N/A,Rain,Light Rain,170,2013-10-17 05:25:00
12:40 AM,48.2,46.4,93,30.00,10.0,South,4.6,-,N/A,,Overcast,170,2013-10-17 05:40:00
12:58 AM,48.7,47.3,95,30.01,10.0,South,3.5,-,0.00,,Light Drizzle,180,2013-10-17 05:58:00
1:01 AM,48.2,48.2,100,30.00,10.0,South,3.5,-,N/A,,Mostly Cloudy,180,2013-10-17 06:01:00
1:58 AM,49.3,47.5,94,30.01,10.0,SSW,5.8,-,0.00,Rain,Light Rain,210,2013-10-17 06:58:00
2:16 AM,50.0,48.2,94,29.99,10.0,SSW,5.8,-,N/A,,Mostly Cloudy,210,2013-10-17 07:16:00
2:58 AM,49.1,47.3,93,30.00,10.0,SW,5.8,-,0.01,Rain,Light Rain,230,2013-10-17 07:58:00
3:58 AM,48.7,46.8,93,29.99,10.0,SW,3.5,-,0.00,,Overcast,220,2013-10-17 08:58:00
4:58 AM,47.7,46.2,95,29.99,10.0,SSW,5.8,-,N/A,,Overcast,210,2013-10-17 09:58:00
5:58 AM,44.1,43.3,97,29.99,10.0,SW,5.8,-,N/A,,Partly Cloudy,220,2013-10-17 10:58:00
6:58 AM,42.3,41.2,96,30.00,10.0,SSW,8.1,-,N/A,,Clear,210,2013-10-17 11:58:00
7:58 AM,41.7,39.9,93,30.00,10.0,SSW,6.9,-,N/A,,Clear,210,2013-10-17 12:58:00
8:58 AM,47.8,44.2,87,30.01,10.0,WSW,8.1,-,N/A,,Clear,240,2013-10-17 13:58:00
9:58 AM,51.8,44.8,77,30.01,10.0,WSW,8.1,-,N/A,,Clear,240,2013-10-17 14:58:00
10:58 AM,55.2,44.8,68,30.02,10.0,WSW,10.4,-,N/A,,Clear,250,2013-10-17 15:58:00
11:58 AM,59.0,42.4,54,30.00,10.0,SW,12.7,-,N/A,,Clear,230,2013-10-17 16:58:00
12:58 PM,61.5,42.3,49,29.97,10.0,WSW,15.0,-,N/A,,Clear,240,2013-10-17 17:58:00
1:58 PM,63.3,41.4,45,29.95,10.0,SSW,12.7,18.4,N/A,,Clear,210,2013-10-17 18:58:00
2:03 PM,64.4,42.8,45,29.94,10.0,WSW,12.7,20.7,N/A,,Clear,250,2013-10-17 19:03:00
2:58 PM,64.9,41.2,42,29.93,10.0,WSW,13.8,-,N/A,,Clear,250,2013-10-17 19:58:00
3:58 PM,65.7,41.5,41,29.92,10.0,WSW,9.2,20.7,N/A,,Clear,240,2013-10-17 20:58:00
4:58 PM,64.8,40.8,42,29.91,10.0,WSW,12.7,-,N/A,,Clear,240,2013-10-17 21:58:00
5:58 PM,61.2,43.2,52,29.92,10.0,SW,8.1,-,N/A,,Clear,220,2013-10-17 22:58:00
6:58 PM,53.8,45.0,72,29.94,10.0,SSW,8.1,-,N/A,,Mostly Cloudy,200,2013-10-17 23:58:00
7:58 PM,50.9,43.9,77,29.96,10.0,SSW,8.1,-,N/A,,Scattered Clouds,210,2013-10-18 00:58:00
8:58 PM,49.5,43.5,80,29.96,10.0,SW,8.1,-,N/A,,Clear,220,2013-10-18 01:58:00
9:58 PM,47.5,42.6,83,29.96,10.0,SSW,8.1,-,N/A,,Clear,210,2013-10-18 02:58:00
10:58 PM,49.3,44.1,82,29.97,10.0,WSW,6.9,-,N/A,,Clear,240,2013-10-18 03:58:00
11:58 PM,49.6,41.2,73,30.00,10.0,NNW,10.4,-,N/A,,Clear,330,2013-10-18 04:58:00